AirNav   Air Wisconsin pilot careers
 
 1054 users online  

01J Hilliard Airpark
Hilliard, Florida, USA

GOING TO HILLIARD?


FAA INFORMATION EFFECTIVE 13 SEPTEMBER 2018

Location

FAA Identifier: 01J
Lat/Long: 30-41-09.4800N / 081-54-22.8350W
30-41.158000N / 081-54.380583W
30.6859667 / -81.9063431
(estimated)
Elevation: 59 ft. / 18.0 m (surveyed)
Variation: 03W (1985)
From city: 1 mile E of HILLIARD, FL
Time zone: UTC -4 (UTC -5 during Standard Time)
Zip code: 32046

Airport Operations

Airport use: Open to the public
Activation date: 12/1969
Control tower: no
ARTCC: JACKSONVILLE CENTER
FSS: GAINESVILLE FLIGHT SERVICE STATION
NOTAMs facility: GNV (NOTAM-D service available)
Attendance: UNATNDD
Wind indicator: lighted
Segmented circle: no
Lights: ACTVT HIRL RY 18/36 - CTAF.
Beacon: white-green (lighted land airport)
Operates sunset to sunrise.

Airport Communications

CTAF: 122.9
WX ASOS at JAX (16 nm SE): PHONE 904-741-4304

Nearby radio navigation aids

VOR radial/distance  VOR name  Freq  Var
VQQr001/(28.4)CECIL VOR117.9003W
CRGr318/29.2CRAIG VORTAC114.5003W
SSIr231/32.3BRUNSWICK VORTAC109.8004W
TAYr075/35.1TAYLOR VORTAC112.9003W

 
NDB name  Hdg/Dist  Freq  Var  ID
DINNS344/14.334406WJA .--- .-

Airport Services

Fuel available: 100LL
Parking: tiedowns
Airframe service: NONE
Powerplant service: NONE
Bottled oxygen: NONE
Bulk oxygen: NONE

Runway Information

Runway 18/36

Dimensions: 3600 x 125 ft. / 1097 x 38 m
Surface: turf, in fair condition
Runway edge lights: high intensity
Gradient: ESTD
RUNWAY 18  RUNWAY 36
Latitude: 30-41.454833N30-40.861167N
Longitude: 081-54.387000W081-54.374167W
Elevation: 54.1 ft.51.3 ft.
Gradient: 0.2%0.2%
Traffic pattern: leftleft
Displaced threshold: 400 ft.730 ft.
Markings: NSTD, in good conditionNSTD, in good condition
Visual slope indicator: 2-light PAPI on right (3.00 degrees glide path)
PAPI 18 UNUSBL BYD 8 DEG RIGHT OF CRS.
2-light PAPI on left (3.00 degrees glide path)
PAPI 36 UNUSBL BYD 5 DEG LEFT OF CRS.
Touchdown point: yes, no lightsyes, no lights
Obstructions: 7 ft. fence, 26 ft. from runway, 3:1 slope to clear
RY 18 APCH RATIO 20:1 TO DSPLCD THLD DUE TO 39 FT TREE 385 FT FROM END OF RY 65 FT L OF CNTRLN.
35 ft. trees, 275 ft. from runway, 8:1 slope to clear
RY 36 APCH RATIO 20:1 TO DSPLCD THLD DUE TO 69 FT TREES 125 FT R OF CNTRLN; 643 FT FROM RY END.

Airport Ownership and Management from official FAA records

Ownership: Publicly-owned
Owner: TOWN OF HILLIARD
PO BOX 249
HILLIARD, FL 32046
Phone 904-845-3555
CONTACT PERSON: LISA PURVIS, 904-845-3555
Manager: JOE BLAKE
P.O. BOX 549, P.O. BOX 549
HILLIARD, FL 32406
Phone 904-923-0482
AIRPORT PHYSICAL ADDRESS: 37776 EAST WOOD ROAD

Airport Operational Statistics

Aircraft based on the field: 25
Single engine airplanes: 24
Ultralights: 1
    
Aircraft operations: avg 96/week *
62% local general aviation
38% transient general aviation
* for 12-month period ending 23 February 2017

Additional Remarks

ARPT CLSD EXCP VMC & FM SS-SR.

Instrument Procedures

There are no published instrument procedures at 01J.

Some nearby airports with instrument procedures:

KJAX - Jacksonville International Airport (16 nm SE)
KFHB - Fernandina Beach Municipal Airport (23 nm E)
KHEG - Herlong Recreational Airport (25 nm S)
KVQQ - Cecil Airport (28 nm S)
KCRG - Jacksonville Executive Airport at Craig (29 nm SE)
 
Loc | Ops | Rwys | IFR | FBO | Links
Com | Nav | Svcs | Stats | Notes


 
Area around 01J (Hilliard Airpark)
 
Road maps at: MapQuest Bing Google
 
Aerial photo
WARNING: Photo may not be current or correct
Aerial photo of 01J (Hilliard Airpark)
Photo by Jack Baily
Photo taken 18-May-2013
looking south.

Do you have a better or more recent aerial photo of Hilliard Airpark that you would like to share? If so, please send us your photo.

 
Sectional chart

 
Airport distance calculator
Flying to Hilliard Airpark? Find the distance to fly.

From to 01J

Sunrise and sunset
Times for 22-Sep-2018
 Local
(UTC-4)
 Zulu
(UTC)
Morning civil twilight06:5310:53
Sunrise07:1711:17
Sunset19:2423:24
Evening civil twilight19:4823:48

Current date and time
Zulu (UTC)  22-Sep-2018 16:04:11
Local (UTC-4)  22-Sep-2018 12:04:11
 
METAR
KJAX 
16nm SE 
221556Z 09007KT 10SM SCT033 BKN060 BKN250 29/22 A3007 RMK AO2 SLP184 T02940217
KVQQ 
28nm S 
221550Z 09007KT 10SM BKN031 33/22 A3008
KCRG 
29nm SE 
221553Z 10008KT 7SM BKN029 BKN040 BKN065 30/23 A3008 RMK AO2 SLP186 T03000228
KNIP 
31nm SE 
221553Z 07011KT 9SM -RA BKN029 BKN070 BKN250 29/22 A3009 RMK AO2 RAB52 SLP184 VIS NE 2 1/2 P0000 T02890222
KNRB 
31nm SE 
221552Z AUTO 09008KT 10SM FEW027 31/22 A3009 RMK AO2 SLP187 T03060217
TAF
KJAX 
16nm SE 
221140Z 2212/2312 04003KT P6SM FEW025 SCT250 FM221400 08010KT P6SM VCSH SCT025 BKN120 TEMPO 2214/2217 SHRA SCT025 BKN035 FM222200 09005KT P6SM FEW025 SCT250
NOTAMs
Click for the latest NOTAMs
NOTAMs are issued by the DoD/FAA and will open in a separate window not controlled by AirNav.

 

 
 

FBO, Fuel Providers, and Aircraft Ground Support

  
 Business Name 
 
 Contact 
 
 Services / Description 
 
Fuel Prices
 
Comments
  
Hilliard Aviation 904-923-0482
[web site]
[email]
Airport management, Aviation fuel, Organization with aviation interests

More info about Hilliard Aviation
Shell
100LL
SS $4.25 
 Updated 13-Sep-2018
 
   1 read write
SS=Self service
Update Fuel Prices
 

Would you like to see your business listed on this page?

 If your business provides an interesting product or service to pilots, flight crews, aircraft, or users of the Hilliard Airpark, you should consider listing it here.  To start the listing process, click on the button below
 
Add a business
 

Other Pages about Hilliard Airpark

01j.8k.com
 
Update a link
 
Copyright © AirNav, LLC. All rights reserved. Privacy Policy  Contact